| time (UTC) | temp C | wind direction | speed KPH | gust KPH | rain 1hr cm | rain 24hr cm | rain mn cm | humidity % | barometer mb |
| 20260502232003 | 6 | 0 | 0.0 | 0.0 | 0.00 | 0.00 | 0.00 | 97 | 1009.1 |
| 20260502231003 | 6 | 0 | 0.0 | 0.0 | 0.00 | 0.00 | 0.00 | 97 | 1009.2 |
| 20260502230004 | 6 | 0 | 0.0 | 0.0 | 0.00 | 0.00 | 0.00 | 97 | 1009.1 |
| 20260502225003 | 6 | 0 | 0.0 | 0.0 | 0.00 | 0.00 | 0.00 | 97 | 1008.8 |
| 20260502224003 | 6 | 0 | 0.0 | 0.0 | 0.00 | 0.00 | 0.00 | 97 | 1009.3 |
| 20260502223004 | 7 | 0 | 0.0 | 0.0 | 0.00 | 0.00 | 0.00 | 97 | 1008.9 |
| 20260502222003 | 7 | 0 | 0.0 | 0.0 | 0.00 | 0.00 | 0.00 | 97 | 1008.8 |
| 20260502221003 | 7 | 0 | 0.0 | 0.0 | 0.00 | 0.00 | 0.00 | 98 | 1008.8 |
| 20260502220022 | 7 | 0 | 0.0 | 0.0 | 0.00 | 0.00 | 0.00 | 97 | 1008.8 |
| 20260502214003 | 8 | 0 | 0.0 | 0.0 | 0.00 | 0.00 | 0.00 | 96 | 1008.9 |
| 20260502213003 | 8 | 0 | 0.0 | 0.0 | 0.00 | 0.00 | 0.00 | 96 | 1009.0 |
| 20260502212004 | 8 | 0 | 0.0 | 0.0 | 0.00 | 0.00 | 0.00 | 96 | 1009.2 |
| 20260502211003 | 8 | 0 | 0.0 | 0.0 | 0.00 | 0.00 | 0.00 | 96 | 1008.8 |
| 20260502210003 | 9 | 0 | 0.0 | 0.0 | 0.00 | 0.00 | 0.00 | 95 | 1009.0 |
| 20260502205003 | 8 | 0 | 0.0 | 0.0 | 0.00 | 0.00 | 0.00 | 94 | 1009.0 |
| 20260502204003 | 9 | 0 | 0.0 | 3.2 | 0.00 | 0.00 | 0.00 | 94 | 1009.3 |
| 20260502203003 | 9 | 0 | 0.0 | 6.4 | 0.00 | 0.00 | 0.00 | 93 | 1009.1 |
| 20260502202003 | 9 | 0 | 0.0 | 3.2 | 0.00 | 0.00 | 0.00 | 92 | 1009.0 |
| 20260502201003 | 10 | 0 | 0.0 | 3.2 | 0.00 | 0.00 | 0.00 | 89 | 1009.3 |
| 20260502200003 | 9 | 0 | 0.0 | 0.0 | 0.00 | 0.00 | 0.00 | 82 | 1009.1 |
| 20260502195003 | 9 | 0 | 0.0 | 0.0 | 0.00 | 0.00 | 0.00 | 81 | 1009.4 |
| 20260502194003 | 10 | 0 | 0.0 | 0.0 | 0.00 | 0.00 | 0.00 | 80 | 1009.2 |
| 20260502193003 | 10 | 0 | 0.0 | 3.2 | 0.00 | 0.00 | 0.00 | 79 | 1009.3 |
| 20260502192003 | 10 | 0 | 0.0 | 0.0 | 0.00 | 0.00 | 0.00 | 79 | 1009.2 |
| 20260502191003 | 10 | 0 | 0.0 | 0.0 | 0.00 | 0.00 | 0.00 | 77 | 1009.0 |
| 20260502190004 | 10 | 0 | 0.0 | 3.2 | 0.00 | 0.00 | 0.00 | 75 | 1009.1 |
| 20260502185003 | 10 | 27 | 3.2 | 6.4 | 0.00 | 0.00 | 0.00 | 74 | 1009.2 |
| 20260502184003 | 11 | 20 | 1.6 | 6.4 | 0.00 | 0.00 | 0.00 | 73 | 1009.0 |
| 20260502183003 | 11 | 40 | 1.6 | 6.4 | 0.00 | 0.00 | 0.00 | 73 | 1008.9 |
| 20260502182003 | 11 | 358 | 1.6 | 6.4 | 0.00 | 0.00 | 0.00 | 72 | 1008.7 |
| 20260502181003 | 11 | 360 | 1.6 | 6.4 | 0.00 | 0.00 | 0.00 | 73 | 1009.0 |
| 20260502164003 | 12 | 48 | 4.8 | 6.4 | 0.00 | 0.00 | 0.00 | 61 | 1009.5 |
| 20260502163003 | 12 | 48 | 3.2 | 6.4 | 0.00 | 0.00 | 0.00 | 61 | 1009.8 |
| 20260502162003 | 13 | 57 | 3.2 | 6.4 | 0.00 | 0.00 | 0.00 | 58 | 1009.7 |
| 20260502161003 | 13 | 36 | 3.2 | 9.7 | 0.00 | 0.00 | 0.00 | 55 | 1009.8 |
| 20260502152003 | 14 | 44 | 4.8 | 12.9 | 0.00 | 0.00 | 0.00 | 45 | 1009.6 |
| 20260502151003 | 15 | 48 | 6.4 | 12.9 | 0.00 | 0.00 | 0.00 | 41 | 1009.3 |
| 20260502123003 | 17 | 14 | 4.8 | 17.7 | 0.00 | 0.00 | 0.00 | 38 | 1010.5 |
| 20260502122003 | 16 | 26 | 3.2 | 14.5 | 0.00 | 0.00 | 0.00 | 38 | 1010.7 |
| 20260502121003 | 17 | 11 | 3.2 | 12.9 | 0.00 | 0.00 | 0.00 | 40 | 1010.5 |
| 20260502115003 | 16 | 321 | 1.6 | 11.3 | 0.00 | 0.00 | 0.00 | 38 | 1010.8 |
| 20260502114003 | 16 | 351 | 4.8 | 6.4 | 0.00 | 0.00 | 0.00 | 41 | 1010.7 |
| 20260502113004 | 16 | 322 | 3.2 | 12.9 | 0.00 | 0.00 | 0.00 | 39 | 1011.1 |
| 20260502112003 | 16 | 5 | 3.2 | 11.3 | 0.00 | 0.00 | 0.00 | 37 | 1011.0 |
| 20260502111007 | 16 | 359 | 4.8 | 11.3 | 0.00 | 0.00 | 0.00 | 36 | 1011.2 |
| 20260502110004 | 16 | 20 | 6.4 | 14.5 | 0.00 | 0.00 | 0.00 | 38 | 1011.3 |
| 20260502105003 | 17 | 19 | 6.4 | 14.5 | 0.00 | 0.00 | 0.00 | 36 | 1011.2 |
| 20260502104003 | 17 | 4 | 6.4 | 14.5 | 0.00 | 0.00 | 0.00 | 38 | 1011.4 |
| 20260502103003 | 17 | 8 | 6.4 | 17.7 | 0.00 | 0.00 | 0.00 | 35 | 1011.3 |
| 20260502102003 | 17 | 334 | 9.7 | 14.5 | 0.00 | 0.00 | 0.00 | 35 | 1011.3 |
| 20260502101003 | 17 | 332 | 8.0 | 14.5 | 0.00 | 0.00 | 0.00 | 34 | 1011.5 |
| 20260502091003 | 16 | 328 | 3.2 | 11.3 | 0.00 | 0.00 | 0.00 | 41 | 1011.7 |
| 20260502071003 | 12 | 352 | 3.2 | 11.3 | 0.00 | 0.00 | 0.00 | 59 | 1013.1 |
| 20260502070003 | 12 | 355 | 4.8 | 12.9 | 0.00 | 0.00 | 0.00 | 59 | 1013.0 |
| 20260502065003 | 12 | 323 | 4.8 | 11.3 | 0.00 | 0.00 | 0.00 | 60 | 1013.3 |
| 20260502064003 | 11 | 6 | 3.2 | 14.5 | 0.00 | 0.00 | 0.00 | 62 | 1013.3 |
| 20260502063003 | 11 | 5 | 8.0 | 14.5 | 0.00 | 0.00 | 0.00 | 62 | 1013.5 |
| 20260502062003 | 11 | 20 | 3.2 | 11.3 | 0.00 | 0.00 | 0.00 | 63 | 1013.5 |
| 20260502061003 | 10 | 7 | 6.4 | 12.9 | 0.00 | 0.00 | 0.00 | 62 | 1013.5 |
| 20260502060003 | 10 | 337 | 3.2 | 12.9 | 0.00 | 0.00 | 0.00 | 65 | 1013.7 |
| 20260502055003 | 10 | 325 | 3.2 | 6.4 | 0.00 | 0.00 | 0.00 | 67 | 1013.5 |
| 20260502054003 | 9 | 353 | 3.2 | 9.7 | 0.00 | 0.00 | 0.00 | 68 | 1013.8 |
| 20260502053003 | 9 | 350 | 1.6 | 9.7 | 0.00 | 0.00 | 0.00 | 70 | 1013.7 |
| 20260502052003 | 8 | 339 | 3.2 | 9.7 | 0.00 | 0.00 | 0.00 | 70 | 1013.9 |
| 20260502051003 | 8 | 355 | 3.2 | 11.3 | 0.00 | 0.00 | 0.00 | 71 | 1013.7 |
| 20260502050003 | 8 | 7 | 3.2 | 6.4 | 0.00 | 0.00 | 0.00 | 71 | 1013.8 |
| 20260502045003 | 8 | 19 | 3.2 | 11.3 | 0.00 | 0.00 | 0.00 | 74 | 1013.8 |
| 20260502044003 | 8 | 6 | 1.6 | 9.7 | 0.00 | 0.00 | 0.00 | 73 | 1013.8 |
| 20260502043003 | 8 | 347 | 3.2 | 9.7 | 0.00 | 0.00 | 0.00 | 73 | 1013.9 |
| 20260502042004 | 7 | 343 | 3.2 | 6.4 | 0.00 | 0.00 | 0.00 | 74 | 1014.0 |
| 20260502041003 | 7 | 355 | 1.6 | 6.4 | 0.00 | 0.00 | 0.00 | 77 | 1014.1 |
| 20260502040003 | 7 | 318 | 1.6 | 3.2 | 0.00 | 0.00 | 0.00 | 79 | 1014.0 |
| 20260502035003 | 6 | 0 | 0.0 | 3.2 | 0.00 | 0.00 | 0.00 | 79 | 1014.0 |
| 20260502034003 | 6 | 0 | 0.0 | 3.2 | 0.00 | 0.00 | 0.00 | 79 | 1014.3 |
| 20260502033003 | 6 | 0 | 0.0 | 3.2 | 0.00 | 0.00 | 0.00 | 78 | 1014.2 |
| 20260502032003 | 6 | 0 | 0.0 | 3.2 | 0.00 | 0.00 | 0.00 | 78 | 1014.5 |
| 20260502031003 | 7 | 0 | 0.0 | 6.4 | 0.00 | 0.00 | 0.00 | 78 | 1014.6 |
| 20260502030003 | 7 | 333 | 1.6 | 6.4 | 0.00 | 0.00 | 0.00 | 78 | 1014.7 |
| 20260502025003 | 7 | 341 | 3.2 | 6.4 | 0.00 | 0.00 | 0.00 | 78 | 1014.7 |
| 20260502024003 | 7 | 333 | 1.6 | 9.7 | 0.00 | 0.00 | 0.00 | 77 | 1014.9 |
| 20260502023003 | 7 | 324 | 3.2 | 6.4 | 0.00 | 0.00 | 0.00 | 77 | 1014.9 |
| 20260502022003 | 7 | 331 | 3.2 | 6.4 | 0.00 | 0.00 | 0.00 | 78 | 1015.1 |
| 20260502021003 | 7 | 330 | 3.2 | 6.4 | 0.00 | 0.00 | 0.00 | 78 | 1015.2 |
| 20260502020003 | 7 | 320 | 1.6 | 6.4 | 0.00 | 0.00 | 0.00 | 80 | 1015.2 |
| 20260502015003 | 7 | 321 | 1.6 | 6.4 | 0.00 | 0.00 | 0.00 | 79 | 1015.5 |
| 20260502014003 | 7 | 318 | 4.8 | 6.4 | 0.00 | 0.00 | 0.00 | 79 | 1015.4 |
| 20260502013003 | 7 | 288 | 3.2 | 6.4 | 0.00 | 0.00 | 0.00 | 80 | 1015.6 |
| 20260502012003 | 7 | 303 | 3.2 | 6.4 | 0.00 | 0.00 | 0.00 | 80 | 1015.7 |
| 20260502011003 | 8 | 301 | 3.2 | 6.4 | 0.00 | 0.00 | 0.00 | 79 | 1015.7 |
| 20260502010003 | 8 | 301 | 3.2 | 9.7 | 0.00 | 0.00 | 0.00 | 78 | 1015.8 |
| 20260502005003 | 8 | 309 | 3.2 | 9.7 | 0.00 | 0.00 | 0.00 | 77 | 1016.0 |
| 20260502004003 | 8 | 300 | 3.2 | 6.4 | 0.00 | 0.00 | 0.00 | 77 | 1016.0 |
| 20260502003003 | 8 | 306 | 3.2 | 6.4 | 0.00 | 0.00 | 0.00 | 76 | 1016.2 |
| 20260502002003 | 8 | 326 | 3.2 | 6.4 | 0.00 | 0.00 | 0.00 | 75 | 1016.1 |
| 20260502001003 | 8 | 297 | 3.2 | 6.4 | 0.00 | 0.00 | 0.00 | 75 | 1015.9 |
| 20260502000003 | 8 | 330 | 3.2 | 6.4 | 0.00 | 0.00 | 0.00 | 75 | 1016.3 |
| 20260501235003 | 8 | 0 | 0.0 | 6.4 | 0.00 | 0.00 | 0.00 | 75 | 1016.1 |
| 20260501234003 | 8 | 308 | 1.6 | 3.2 | 0.00 | 0.00 | 0.00 | 74 | 1016.5 |
| 20260501233003 | 9 | 317 | 1.6 | 3.2 | 0.00 | 0.00 | 0.00 | 73 | 1016.4 |